This is the latest recevied weather packets stored in our database for station/object K6GMW. If no packets are shown the sender has not sent any weather packets the latest 10 day(s).
| Time | Temp. | Humidity | Pressure | Rain* | Wind** | Luminosity | Snow |
|---|---|---|---|---|---|---|---|
| 1788442219 | 26.67° C | 79% | 1017 hPa | 0 mm | - | 71 W/m² | - |
| 1788441914 | 26.67° C | 80% | 1017.1 hPa | 0 mm | - | 79 W/m² | - |
| 1788441609 | 26.67° C | 81% | 1017 hPa | 0 mm | - | 85 W/m² | - |
| 1788441304 | 26.67° C | 81% | 1017.1 hPa | 0 mm | - | 122 W/m² | - |
| 1788441003 | 26.67° C | 82% | 1017 hPa | 0 mm | - | 137 W/m² | - |
| 1788440698 | 26.11° C | 83% | 1017 hPa | 0 mm | - | 128 W/m² | - |
| 1788440396 | 26.11° C | 84% | 1017.2 hPa | 0 mm | - | 120 W/m² | - |
| 1788440096 | 26.11° C | 85% | 1017 hPa | 0 mm | - | 119 W/m² | - |
| 1788439791 | 25.56° C | 86% | 1017.1 hPa | 0 mm | - | 112 W/m² | - |
| 1788439486 | 25.56° C | 87% | 1017.1 hPa | 0 mm | - | 73 W/m² | - |
| 1788439185 | 25° C | 87% | 1017 hPa | 0 mm | - | 54 W/m² | - |
| 1788438879 | 25° C | 88% | 1017.1 hPa | 0 mm | - | 46 W/m² | - |
| 1788438578 | 25° C | 88% | 1016.8 hPa | 0 mm | - | 40 W/m² | - |
| 1788438273 | 25° C | 88% | 1016.7 hPa | 0 mm | - | 30 W/m² | - |
| 1788437971 | 25° C | 88% | 1016.7 hPa | 0 mm | - | 23 W/m² | - |
| 1788437667 | 25° C | 88% | 1016.6 hPa | 0 mm | - | 19 W/m² | - |
| 1788437363 | 25° C | 88% | 1016.7 hPa | 0 mm | - | 14 W/m² | - |
| 1788437061 | 25° C | 88% | 1016.6 hPa | 0 mm | - | 11 W/m² | - |
| 1788436760 | 25° C | 88% | 1016.5 hPa | 0 mm | - | 7 W/m² | - |
| 1788436460 | 25° C | 88% | 1016.4 hPa | 0 mm | - | 4 W/m² | - |
| 1788436160 | 25° C | 88% | 1016.5 hPa | 0 mm | - | 2 W/m² | - |
| 1788435856 | 25° C | 89% | 1016.2 hPa | 0 mm | - | 1 W/m² | - |
| 1788435552 | 25° C | 89% | 1016.3 hPa | 0 mm | - | 0 W/m² | - |
| 1788435247 | 25° C | 90% | 1016.4 hPa | 0 mm | - | 0 W/m² | - |
| 1788434943 | 25° C | 90% | 1016.3 hPa | 0 mm | - | 0 W/m² | - |
* Rain latest hour (hover to see other rain measurements)
** Current wind speed in m/s (hover to see current wind gust speed)